Regional Weather Roundup
Issued by NWS

Home | Current Version | Previous Version | Graphics & Text | Print | Product List | Glossary Off
Versions: 1 2 3 4 5 6 7 8 9 10 11 12 13 14 15 16 17 18 19 20 21 22 23 24 25 26 27 28 29 30 31 32 33 34 35 36 37 38 39 40 41 42 43 44 45 46 47 48 49 50

000
ASUS43 KBIS 251710
RWRND
NORTH DAKOTA REGIONAL WEATHER ROUNDUP
NATIONAL WEATHER SERVICE EASTERN NORTH DAKOTA/GRAND FORKS ND
1200 PM CDT THU MAY 25 2017

  NOTE: "FAIR" INDICATES FEW OR NO CLOUDS BELOW 12,000 FEET WITH NO
  SIGNIFICANT WEATHER AND/OR OBSTRUCTIONS TO VISIBILITY.

NDZ001>003-009>011-017-251800-
...NORTHWEST NORTH DAKOTA...

CITY           SKY/WX    TMP DP  RH WIND       PRES   REMARKS
WILLISTON      CLOUDY    55  44  66 SW17G25   29.36S
MINOT          FAIR      67  38  34 SW13G23   29.36S
MINOT AFB      NOT AVBL
$$

NDZ018>021-031>035-040>046-251800-
...SOUTHWEST NORTH DAKOTA...

CITY           SKY/WX    TMP DP  RH WIND       PRES   REMARKS
BISMARCK       FAIR      66  47  50 NW8       29.43S
DICKINSON      FAIR      62  35  36 W26G37    29.41S
GARRISON         N/A     64  38  38 W15       29.38F
HETTINGER      FAIR      63  31  30 W24G31    29.48R
$$

NDZ004>008-012>016-024-026-027-054-251800-
...NORTHEAST NORTH DAKOTA...

CITY           SKY/WX    TMP DP  RH WIND       PRES   REMARKS
GRAND FORKS    PTSUNNY   68  47  46 S26G36    29.50F
GRAND FORKS AF NOT AVBL
DEVILS LAKE    CLOUDY    60  46  59 S18       29.45F
$$

NDZ022-023-025-028>030-036>039-047>053-251800-
...SOUTHEAST NORTH DAKOTA...

CITY           SKY/WX    TMP DP  RH WIND       PRES   REMARKS
JAMESTOWN      CLOUDY    63  47  55 S17G25    29.43S
FARGO          CLOUDY    65  48  54 SE22G38   29.51F
WAHPETON       FAIR      66  45  45 SE28G35   29.52F
$$




USA.gov is the U.S. government's official web portal to all federal, state and local government web resources and services.